Regional Weather Roundup
Issued by NWS Kansas City/Pleasant Hill, MO

Home | Current Version | Previous Version | Text Only | Print | Product List | Glossary On
Versions: 1 2 3 4 5 6 7 8 9 10 11 12 13 14 15 16 17 18 19 20 21 22 23 24 25 26 27
000
ASUS43 KEAX 231810
RWREAX

WEATHER ROUNDUP FOR EASTERN KANSAS AND NORTHWEST MISSOURI
NATIONAL WEATHER SERVICE KANSAS CITY/PLEASANT HILL MO
1200 PM CST THU NOV 23 2017

KSZ040-057-103>105-MOZ028-029-037-043-231900-
...KANSAS CITY METROPOLITAN AREA...

CITY           SKY/WX    TMP DP  RH WIND       PRES   REMARKS
K.C. INTL      MOSUNNY   55  32  41 W5        30.02F
6HR MIN TEMP:  34; 6HR MAX TEMP:  55;

K.C. DOWNTOWN  SUNNY     54  29  38 CALM      30.01F
6HR MIN TEMP:  37; 6HR MAX TEMP:  54;

LEES SUMMIT    SUNNY     55  31  39 W5        30.02F
6HR MIN TEMP:  34; 6HR MAX TEMP:  55;

OLATHE - IXD   SUNNY     54  32  43 W3        30.03F
6HR MIN TEMP:  34; 6HR MAX TEMP:  54;

OLATHE - OJC   SUNNY     53  31  42 SW6       30.02F
6HR MIN TEMP:  32; 6HR MAX TEMP:  53; 6HR PCP: TRACE;

LAWRENCE       SUNNY     57  31  37 CALM      30.03F

$$

MOZ001>008-011>017-020>025-030>033-038>040-044>046-053-054-231900-
...NORTHERN AND CENTRAL MISSOURI...

CITY           SKY/WX    TMP DP  RH WIND       PRES   REMARKS
ST. JOSEPH     SUNNY     54  31  41 CALM      30.02F
6HR MIN TEMP:  29; 6HR MAX TEMP:  54;

MOSBY            N/A     55  32  41 NW5       30.01F
WARRENSBURG    SUNNY     52  28  40 SW6       30.02F
WHITEMAN AFB   SUNNY     53  28  38 SW7       29.97F
6HR MIN TEMP:  32; 6HR MAX TEMP:  53;

CLINTON        SUNNY     54  28  37 MISG      30.04F
SEDALIA        SUNNY     54  30  40 SW10      30.03F
6HR MIN TEMP:  36; 6HR MAX TEMP:  54;

WARSAW         NOT AVBL
CHILLICOTHE      N/A     55  32  41 NW5       30.00F
6HR MIN TEMP:  30; 6HR MAX TEMP:  55;

KIRKSVILLE     SUNNY     51  30  44 VRB6      29.98F
6HR MIN TEMP:  32; 6HR MAX TEMP:  51;


$$

MOZ041-047>049-056>058-063>065-088>090-097-231900-
...EASTERN AND SOUTHERN MISSOURI...

CITY           SKY/WX    TMP DP  RH WIND       PRES   REMARKS
ST. LOUIS INTL MOSUNNY   53  22  29 SW14      30.01F
6HR MIN TEMP:  31; 6HR MAX TEMP:  53;

SPIRIT OF STL  SUNNY     54  23  30 W10       30.00F
COLUMBIA       SUNNY     54  28  36 W9        30.00F
JEFFERSON CITY SUNNY     53  26  35 W10       30.01F
ROLLA          SUNNY     55  25  31 SW12      30.02F
OSAGE BEACH    SUNNY     55  25  31 SW7       30.03F
SPRINGFIELD    SUNNY     58  26  29 SW10      30.04F
JOPLIN         SUNNY     56  27  32 SW16      30.07F
WEST PLAINS    SUNNY     55  22  27 W10       30.06F

$$

IAZ060-094-KSZ022-034>040-054-083-096-NEZ052-066-093-231900-
...KANSAS...SOUTHEAST NEBRASKA AND IOWA...

CITY           SKY/WX    TMP DP  RH WIND       PRES   REMARKS
TOPEKA         SUNNY     57  34  41 VRB3      30.03F
6HR MIN TEMP:  30; 6HR MAX TEMP:  57;

MANHATTAN      SUNNY     59  33  37 S5        30.03F
EMPORIA        SUNNY     60  33  36 CALM      30.04F
CHANUTE        SUNNY     55  29  36 SW6       30.06F
WICHITA        MOSUNNY   60  33  36 CALM      30.05F
OMAHA          MOSUNNY   54  34  46 CALM      29.99F
LINCOLN        SUNNY     60  38  43 CALM      30.01F
FALLS CITY     SUNNY     58  36  43 NW7       30.00F
LAMONI         SUNNY     54  33  45 NW9       29.97F
DES MOINES     MOSUNNY   48  28  46 NW6       29.97F

$$





USA.gov is the U.S. government's official web portal to all federal, state and local government web resources and services.